Terminal Aerodrome Forecast
Issued by NWS Louisville, KY

Home | Current Version | Previous Version | Text Only | Print | Product List | Glossary On
Versions: 1 2 3 4 5 6 7 8 9 10 11 12 13 14 15 16 17
000
FTUS43 KLMK 192300
TAFBWG
TAF
KBWG 192322Z 2000/2024 11005KT P6SM SKC
     FM200600 16003KT P6SM SCT040
     FM201500 19008KT P6SM SCT045=

USA.gov is the U.S. government's official web portal to all federal, state and local government web resources and services.